www.pogodaiklimat.ru

Погода и климат >> Архив погоды >> Индонезия >> Нангапинох


ПОГОДА в Нангапинохе

  • Прогноз погоды в Нангапинохе
  • Монитор погоды в Нангапинохе

АРХИВ ПОГОДЫ в Нангапинохе

Время (UTC), дата Ветер
(напр.,м/с)
 
Видим.   Явления Облачность Т
(С)
Тd
(С)
f
(%)
Тe
(С)
Тes
(С)
Комфортность P
(гПа)
Po
(гПа)
Тmin
(С)
Tmax
(С)
R
(мм)
R24
(мм)
S
(см)
09 14.01 штиль 0 10 км 8/6 300 м
[Cu med, cong As trans Ci fib]
+32.8 +22.5 55 +42 +44 опасность
перегрева
1006.1 1001.4
12 14.01 Ю 3 5000 м зарница 10/6 300 м
[Cb cap As op]
+29.6 +24.1 72 +41 +41 опасность
перегрева
1009.3 1004.5 +33.4
15 14.01 ЮЗ 2 2000 м зарница 10/6
[Cb cap As op]
+24.4 +23.0 92 +32 +32 очень
душно
1011.7 1006.9
00 15.01 штиль 0 7000 м 9/6 300 м
[Cu Sc As op Ci fib]
+23.2 +22.8 98 +32 +33 очень
душно
1010.4 1005.6 +23.2
03 15.01 В 1 10 км 5/3 330 м
[Cu hum Ac As Ci fib]
+28.8 +22.3 68 +38 +49 очень
душно
1010.7 1005.9
06 15.01 СВ 2 10 км 6/5 330 м
[Cu med, cong Ac As Ci fib]
+31.7 +22.8 59 +41 +49 опасность
перегрева
1008.3 1003.5
09 15.01 ЮЗ 2 8000 м осадки на расстоянии 9/5 300 м
[Cb cap As op Ci fib]
+29.8 +24.9 75 +43 +44 опасность
перегрева
1006.4 1001.7
12 15.01 ЮЗ 1 7000 м 9/5 300 м
[Cb cap As op Ci fib]
+27.2 +24.3 84 +38 +38 очень
душно
1009.2 1004.4 +32.8
15 15.01 Ю 3 4000 м мгла {дождь} 10/6 300 м
[Cb cap As op]
+24.9 +23.6 92 +34 +34 очень
душно
1010.8 1006.0 3
00 16.01 штиль 0 1000 м мгла 10/6 300 м
[Cb cap As op]
+24.1 +23.1 94 +32 +32 очень
душно
1010.8 1006.0 +23.4 3
03 16.01 штиль 0 6000 м 9/6
[Cb cap As op]
+28.4 +24.0 77 +39 +43 очень
душно
1010.5 1005.7
06 16.01 СЗ 2 8000 м 9/6 300 м
[Cb cap Ac As Ci fib]
+31.2 +23.0 62 +41 +46 опасность
перегрева
1008.7 1003.9
09 16.01 штиль 0 10 км 8/6 300 м
[Cb calv As op Ci fib]
+32.3 +23.1 58 +42 +44 опасность
перегрева
1006.6 1001.8
12 16.01 СЗ 3 4000 м слаб. дождь 10/6 300 м
[Cb cap As op]
+25.8 +21.9 79 +33 +33 очень
душно
1009.5 1004.8 +33.0 0.0
15 16.01 штиль 0 2000 м мгла {дождь} 9/6 300 м
[Cb cap As op]
+24.4 +23.2 93 +33 +33 очень
душно
1011.3 1006.5 0.7
00 17.01 штиль 0 3000 м дымка 9/4 330 м
[Sc Ac As Ci fib]
+23.2 +22.6 96 +32 +33 очень
душно
1010.8 1006.0 +23.0 0.7
03 17.01 штиль 0 10 км 8/4 330 м
[Cu hum As trans Ci fib]
+28.4 +22.8 72 +38 +47 очень
душно
1010.2 1005.4
06 17.01 З 1 10 км 6/5 330 м
[Cu hum As trans Ci fib]
+32.0 +22.3 57 +41 +50 опасность
перегрева
1007.8 1003.0
09 17.01 СЗ 1 9000 м осадки на расстоянии 6/5 300 м
[Cb calv As op Ci fib]
+32.8 +22.9 56 +43 +44 опасность
перегрева
1005.9 1001.2
12 17.01 штиль 0 6000 м зарница {дождь} 9/5 300 м
[Cb cap As op Ci fib]
+26.0 +24.5 91 +36 +36 очень
душно
1008.8 1004.0 +33.8 0.8
15 17.01 ЮВ 1 3000 м мгла 9/6 300 м
[Cb cap As op Ci fib]
+25.9 +24.7 93 +37 +37 очень
душно
1010.2 1005.4
00 18.01 штиль 0 3000 м мгла 8/6 330 м
[Cu med, cong As trans Ci fib]
+25.3 +24.2 94 +35 +36 очень
душно
1009.6 1004.8 +23.2 0.8
03 18.01 ЮЗ 1 8000 м 8/6 330 м
[Cu med, cong As trans Ci fib]
+29.4 +24.5 75 +42 +47 опасность
перегрева
1010.5 1005.7
06 18.01 штиль 0 10 км 8/6 330 м
[Cu med, cong As trans Ci fib]
+33.6 +22.9 54 +44 +51 опасность
перегрева
1007.1 1002.3
09 18.01 СВ 1 10 км 8/6 330 м
[Cu Sc Ac trans Ci fib]
+34.2 +23.5 54 +45 +46 опасность
перегрева
1005.2 1000.4
12 18.01 ЮЗ 2 5000 м гроза, ливневой дождь 10/6 300 м
[Cb cap As op]
+28.6 +24.0 76 +40 +40 очень
душно
1008.1 1003.3 +34.6 3
15 18.01 штиль 0 5000 м зарница {гроза, дождь} 9/5 300 м
[Cb cap As op Ci fib]
+25.8 +24.0 90 +36 +36 очень
душно
1010.0 1005.2 1
00 19.01 штиль 0 4000 м мгла 9/3 330 м
[Sc Ac As Ci fib]
+24.6 +23.7 95 +33 +35 очень
душно
1009.8 1005.0 +24.2 5
03 19.01 Ю 2 10 км 6/3 330 м
[Cu hum As trans Ci fib]
+30.4 +24.0 69 +42 +51 опасность
перегрева
1010.2 1005.4
06 19.01 В 2 10 км 9/6 330 м
[Cu med, cong As trans Ci fib]
+31.8 +23.9 63 +43 +48 опасность
перегрева
1007.2 1002.4
09 19.01 Ю 2 10 км 6/3 330 м
[Cu med, cong Ac As Ci fib]
+33.8 +23.7 56 +45 +47 опасность
перегрева
1004.8 1000.0
12 19.01 штиль 0 5000 м в посл. час дождь 9/5 300 м
[Cb cap As op Ci fib]
+29.4 +25.4 79 +43 +43 опасность
перегрева
1008.1 1003.3 +34.0 0.3
15 19.01 С 2 4000 м мгла {дождь} 9/5 300 м
[Cb cap As op Ci fib]
+24.6 +22.9 90 +33 +33 очень
душно
1011.1 1006.3 1
00 20.01 штиль 0 1000 м мгла 10/6 300 м
[Cb calv As op]
+24.2 +23.5 96 +33 +33 очень
душно
1011.2 1006.4 +23.8 2
03 20.01 штиль 0 4000 м мгла 9/6
[Cb calv As op]
+28.0 +23.9 78 +39 +42 очень
душно
1011.3 1006.5
06 20.01 штиль 0 10 км 9/6 300 м
[Cb calv As op Ci fib]
+31.3 +24.1 66 +43 +49 опасность
перегрева
1008.6 1003.8
09 20.01 СВ 1 10 км 8/6 300 м
[Cb calv Ac As Ci fib]
+33.0 +24.7 62 +46 +47 опасность
перегрева
1006.4 1001.6
12 20.01 Ю 6 3000 м гроза, ливневой дождь 10/6 300 м
[Cb cap As op]
+27.6 +24.4 83 +39 +39 очень
душно
1009.9 1005.1 +33.5 0.0
15 20.01 штиль 0 1000 м слаб. ливневой дождь, в посл. час гроза 10/6 300 м
[Cb cap As op]
+23.4 +23.2 99 +33 +33 очень
душно
1010.6 1005.8 27
00 21.01 штиль 0 1000 м слаб. дождь 10/6 300 м
[Cb cap As op]
+23.6 +23.5 99 +32 +32 очень
душно
1011.3 1006.5 +23.5 48
03 21.01 штиль 0 1000 м мгла {дождь} 10/6 300 м
[Cb cap As op]
+25.4 +23.6 90 +35 +36 очень
душно
1011.6 1006.9 5
06 21.01 штиль 0 6000 м в посл. час дождь 10/6 300 м
[Cb cap As op]
+28.5 +24.7 80 +41 +42 опасность
перегрева
1009.5 1004.8 1

 

Местоположение метеостанции Нангапинох (Индонезия): широта -0.35 долгота 111.78 высота над уровнем моря 37 м.

В архиве по умолчанию представлена погода в Нангапинохе за последнюю неделю. Архивные данные за месяц целиком и за предыдущие месяцы, начиная с января 2011 года, Вы можете получить, выбрав интересующий диапазон дат из раскрывающегося списка и нажав кнопку "Ввод!".


*Определитесь, кто Вы:
робот инопланетянин человек

Внимание! Время в таблицах - всемирное. Для получения местного времени необходимо прибавить поправку, которая равна 7 ч.

Смотрите также архив погоды в соседних городах и на ближайших метеорологических станциях:

Погода в Синтанге (Индонезия) (59 км)
Погода на Путусиббау (Индонезия) (185 км)
Погода в Паоанкарая (Индонезия) (257 км)
Погода в Кучинге (Малайзия) (260 км)
Погода в Пангкалан-Буне (Индонезия) (262 км)
Погода в Кетапанге (Индонезия) (262 км)
Погода в Понтианаке (Индонезия) (266 км)
Погода в Сибу (Малайзия) (298 км)
Погода в Муаратевехе (Индонезия) (353 км)
Погода в Парохе (Индонезия) (363 км)

Пояснения к столбцам:

Ветер - указаны скорость ветра в м/с - средняя за 10 мин, порывы в срок и между сроками (в фигурных скобках) и направление, откуда дует ветер: С - северный, СВ - северо-восточный, В - восточный, ЮВ - юго-восточный, Ю - южный, ЮЗ - юго-западный, З - западный, СЗ - северо-западный.
Видимость - горизонтальная дальность видимости в метрах или километрах. При видимости от 1 до 10 км при отсутствии осадков обычно наблюдается дымка, при ухудшении видимости до 1 км и менее - туман. В сухую погоду видимость может ухудшаться дымом, пылью или мглою.
Явления - указаны атмосферные явления, наблюдавшиеся в срок или в последний час перед сроком; фигурными скобками обозначены явления, наблюдавшиеся между сроками (за 1-3 часа до срока); квадратными скобками обозначены град или гололедные отложения с указанием их диаметра в мм.
Облачность - указаны через наклонную черту общая и нижняя облачность в баллах и высота нижней границы облаков в метрах; квадратными скобками обозначены формы облаков: Ci - перистые, Cs - перисто-слоистые, Cc - перисто-кучевые, Ac - высококучевые, As - высокослоистые, Sc - слоисто-кучевые, Ns - слоисто-дождевые, Cu - кучевые, Cb - кучево-дождевые. Подробнее классификацию облаков см. в Атласе облаков (PDF).
T - Температура воздуха - температура, измеренная на высоте 2 м над землей.
Td - Температура точки росы - температура, при понижении до которой содержащийся в воздухе водяной пар достигнет насыщения.
f - Относительная влажность воздуха - влажноcть воздуха, измеренная на высоте 2 м над землей.
Te - Эффективная температура - температура, которую ощущает одетый по сезону человек в тени. Характеристика душности погоды. При расчете учитывается влияние влажности воздуха и скорости ветра на теплоощущения человека.
Tes - Эффективная температура на солнце - температура, которую ощущает человек, с поправкой на солнечный нагрев. Характеристика знойности погоды. Зависит от высоты солнца над горизонтом, облачности и скорости ветра. Ночью, в пасмурную погоду, а также при ветре 12 м/с и более поправка равна нулю.
P - Атмосферное давление - приведенное к уровню моря атмосферное давление.
Po - Атмосферное давление - измеренное на уровне метеостанции атмосферное давление.
Tmin - Минимальная температура - минимум температуры воздуха на высоте 2 м над землей.
Tmax - Максимальная температура - максимум температуры воздуха на высоте 2 м над землей.
R - Количество осадков - Количество выпавших осадков за период времени, мм. При наведении курсора мыши на число - период времени, за который выпало указанное количество осадков.
R24 - Количество осадков - Количество выпавших осадков за 24 часа, мм.
S - Снежный покров - Высота снежного покрова, см. При наведении курсора мыши на число - состояние снежного покрова и степень покрытия местности в баллах.